This is the latest recevied weather packets stored in our database for station/object KD2SIG. If no packets are shown the sender has not sent any weather packets the latest 10 day(s).
| Time | Temp. | Humidity | Pressure | Rain* | Wind** | Luminosity | Snow |
|---|---|---|---|---|---|---|---|
| 1777564328 | 6.67° C | 93% | 1009.7 hPa | 0 mm | - | 77 W/m² | - |
| 1777564024 | 6.67° C | 93% | 1009.8 hPa | 0 mm | - | 83 W/m² | - |
| 1777563720 | 6.67° C | 93% | 1009.7 hPa | 0 mm | - | 88 W/m² | - |
| 1777563410 | 6.67° C | 94% | 1009.6 hPa | 0 mm | - | 106 W/m² | - |
| 1777563106 | 6.67° C | 94% | 1009.4 hPa | 0 mm | - | 95 W/m² | - |
| 1777562801 | 6.67° C | 94% | 1009.4 hPa | 0 mm | - | 102 W/m² | - |
| 1777562499 | 6.67° C | 95% | 1009.5 hPa | 0 mm | - | 104 W/m² | - |
| 1777562197 | 6.67° C | 95% | 1009.4 hPa | 0 mm | - | 83 W/m² | - |
| 1777561894 | 6.67° C | 95% | 1009.3 hPa | 0 mm | - | 68 W/m² | - |
| 1777561591 | 6.67° C | 95% | 1009.5 hPa | 0 mm | - | 70 W/m² | - |
| 1777561287 | 6.67° C | 96% | 1009.6 hPa | 0 mm | - | 84 W/m² | - |
| 1777560986 | 6.67° C | 96% | 1009.3 hPa | 0 mm | - | 94 W/m² | - |
| 1777560682 | 6.11° C | 96% | 1009.3 hPa | 0 mm | - | 97 W/m² | - |
| 1777560380 | 6.67° C | 96% | 1009.6 hPa | 0 mm | - | 112 W/m² | - |
| 1777560078 | 6.11° C | 96% | 1009.5 hPa | 0 mm | - | 85 W/m² | - |
| 1777559774 | 6.11° C | 96% | 1009.5 hPa | 0 mm | - | 87 W/m² | - |
| 1777559471 | 6.11° C | 97% | 1009.6 hPa | 0 mm | - | 107 W/m² | - |
| 1777559168 | 6.11° C | 97% | 1009.5 hPa | 0 mm | - | 92 W/m² | - |
| 1777558868 | 6.11° C | 97% | 1009.1 hPa | 0 mm | - | 110 W/m² | - |
| 1777558564 | 6.11° C | 97% | 1009.3 hPa | 0 mm | - | 85 W/m² | - |
| 1777558259 | 6.11° C | 97% | 1009.2 hPa | 0 mm | - | 73 W/m² | - |
| 1777557956 | 6.11° C | 97% | 1009.2 hPa | 0 mm | - | 97 W/m² | - |
| 1777557653 | 6.11° C | 97% | 1009.2 hPa | 0 mm | - | 88 W/m² | - |
| 1777557349 | 6.11° C | 97% | 1009.1 hPa | 0 mm | - | 70 W/m² | - |
| 1777557045 | 6.11° C | 97% | 1009.3 hPa | 0 mm | - | 75 W/m² | - |
* Rain latest hour (hover to see other rain measurements)
** Current wind speed in m/s (hover to see current wind gust speed)